TimeEST,TemperatureF,Dew PointF,Humidity,Sea Level PressureIn,VisibilityMPH,Wind Direction,Wind SpeedMPH,Gust SpeedMPH,PrecipitationIn,Events,Conditions,WindDirDegrees,DateUTC
12:09 AM,39.2,35.6,87,30.01,7.0,ESE,15.0,-,0.01,Rain,Rain,120,2013-01-11 05:09:00
12:35 AM,39.2,37.4,93,30.01,2.5,SE,13.8,23.0,0.14,Rain,Rain,130,2013-01-11 05:35:00
12:42 AM,39.2,37.4,93,30.01,4.0,ESE,15.0,-,0.17,Rain,Rain,120,2013-01-11 05:42:00
12:53 AM,39.0,37.0,93,29.99,3.0,ESE,16.1,19.6,0.22,Rain,Rain,120,2013-01-11 05:53:00
1:12 AM,39.2,37.4,93,29.97,5.0,SE,13.8,-,0.02,Rain,Light Rain,130,2013-01-11 06:12:00
1:53 AM,41.0,39.0,93,29.96,5.0,SE,16.1,-,0.05,Rain,Light Rain,130,2013-01-11 06:53:00
2:53 AM,42.1,39.9,92,29.93,6.0,SE,15.0,-,0.06,Rain,Light Rain,140,2013-01-11 07:53:00
3:53 AM,43.0,41.0,93,29.88,2.5,SE,13.8,-,0.01,Rain,Rain,130,2013-01-11 08:53:00
4:01 AM,42.8,41.0,93,29.86,3.0,SE,13.8,-,0.01,Rain,Light Rain,130,2013-01-11 09:01:00
4:34 AM,42.8,41.0,93,29.83,2.5,SE,12.7,-,0.09,Rain,Rain,130,2013-01-11 09:34:00
4:42 AM,42.8,41.0,93,29.82,4.0,SE,12.7,-,0.10,Rain,Light Rain,130,2013-01-11 09:42:00
4:53 AM,44.1,42.1,93,29.83,6.0,SE,15.0,-,0.10,Rain,Light Rain,130,2013-01-11 09:53:00
5:24 AM,44.6,42.8,93,29.79,5.0,SE,13.8,-,0.02,Rain,Light Rain,130,2013-01-11 10:24:00
5:45 AM,44.6,42.8,93,29.78,4.0,SE,11.5,-,0.05,Rain,Light Rain,130,2013-01-11 10:45:00
5:53 AM,45.0,43.0,93,29.78,5.0,SE,12.7,-,0.06,Rain,Light Rain,140,2013-01-11 10:53:00
6:53 AM,46.9,46.0,97,29.74,6.0,SE,12.7,-,0.02,,Overcast,130,2013-01-11 11:53:00
7:53 AM,48.0,46.0,93,29.73,6.0,SSE,11.5,-,N/A,,Overcast,150,2013-01-11 12:53:00
8:44 AM,48.2,48.2,100,29.73,6.0,SSE,10.4,-,N/A,,Overcast,160,2013-01-11 13:44:00
8:53 AM,50.0,48.0,93,29.74,6.0,SSE,15.0,-,N/A,,Overcast,160,2013-01-11 13:53:00
9:42 AM,51.8,48.2,88,29.73,7.0,South,11.5,-,0.00,Rain,Light Rain,180,2013-01-11 14:42:00
9:53 AM,51.1,48.9,92,29.74,8.0,South,11.5,-,0.00,,Overcast,180,2013-01-11 14:53:00
10:53 AM,54.0,51.1,90,29.74,3.0,SSW,13.8,19.6,0.02,Rain,Light Rain,200,2013-01-11 15:53:00
11:53 AM,53.1,50.0,89,29.74,4.0,SW,20.7,29.9,0.01,,Overcast,220,2013-01-11 16:53:00
12:01 PM,51.8,48.2,88,29.73,2.0,SW,18.4,-,N/A,,Overcast,220,2013-01-11 17:01:00
12:19 PM,51.8,48.2,88,29.73,5.0,SW,16.1,21.9,N/A,,Overcast,220,2013-01-11 17:19:00
12:53 PM,50.0,48.0,93,29.74,3.0,SW,16.1,-,N/A,,Overcast,220,2013-01-11 17:53:00
1:00 PM,50.0,48.2,94,29.73,2.0,SW,19.6,27.6,N/A,,Overcast,220,2013-01-11 18:00:00
1:14 PM,50.0,46.4,87,29.74,3.0,SW,19.6,27.6,N/A,,Overcast,220,2013-01-11 18:14:00
1:45 PM,51.8,46.4,82,29.74,10.0,SW,19.6,28.8,N/A,,Overcast,220,2013-01-11 18:45:00
1:53 PM,51.1,46.9,86,29.75,10.0,SW,19.6,25.3,N/A,,Overcast,220,2013-01-11 18:53:00
2:15 PM,50.0,46.4,87,29.74,1.8,SW,20.7,29.9,N/A,,Overcast,220,2013-01-11 19:15:00
2:19 PM,50.0,46.4,87,29.75,2.0,SW,18.4,25.3,N/A,,Overcast,220,2013-01-11 19:19:00
2:50 PM,50.0,46.4,87,29.77,6.0,SW,24.2,33.4,N/A,,Overcast,220,2013-01-11 19:50:00
3:53 PM,50.0,46.0,86,29.80,4.0,SW,18.4,24.2,N/A,,Overcast,230,2013-01-11 20:53:00
4:31 PM,48.2,44.6,87,29.80,10.0,SW,18.4,26.5,N/A,,Overcast,220,2013-01-11 21:31:00
4:53 PM,50.0,45.0,83,29.81,10.0,SW,13.8,23.0,N/A,,Overcast,220,2013-01-11 21:53:00
5:03 PM,50.0,44.6,82,29.79,10.0,SSW,13.8,23.0,N/A,,Overcast,210,2013-01-11 22:03:00
5:53 PM,48.9,45.0,86,29.79,10.0,South,15.0,-,N/A,,Overcast,190,2013-01-11 22:53:00
6:01 PM,48.2,44.6,87,29.78,10.0,South,11.5,-,N/A,,Overcast,190,2013-01-11 23:01:00
6:53 PM,50.0,45.0,83,29.82,10.0,South,8.1,-,N/A,,Overcast,180,2013-01-11 23:53:00
7:04 PM,50.0,44.6,82,29.81,10.0,South,9.2,-,N/A,,Overcast,190,2013-01-12 00:04:00
7:53 PM,48.9,45.0,86,29.79,10.0,SSE,6.9,-,N/A,,Overcast,160,2013-01-12 00:53:00
8:39 PM,48.2,44.6,87,29.78,10.0,SSE,5.8,-,N/A,,Partly Cloudy,150,2013-01-12 01:39:00
8:53 PM,48.0,44.1,86,29.80,10.0,South,5.8,-,N/A,,Clear,170,2013-01-12 01:53:00
9:53 PM,50.0,44.1,80,29.72,10.0,South,10.4,-,N/A,,Clear,170,2013-01-12 02:53:00
10:53 PM,50.0,45.0,83,29.76,10.0,South,10.4,-,N/A,,Clear,180,2013-01-12 03:53:00